默认 日期 大小 文件数 浏览量 最新下载 xml
boddy磁力链接相关资源由用户搜索指令自动获取,结果来源于网络,本站不存储任何资料,亦不承担任何责任,请于24小时内删除,搜索到116个磁力,用时0ms。
    {"Ian Boddy [Sepulchre] [FLAC] [CodeTempest]": {"[ART]": {"front. ... - CodeTempest 101.jpg": 1489178, "Ian Boddy [Sepulchre] [2013] [FLAC] [CodeTempest] [DESCRIPTION ...
创建时间: 2019-08-08 12:59:08 大小:318.09 MB 文件数量:12 热度:3 最近下载:2021-06-17 16:25:58
    {"cover.jpg": 712626, "06 - Moiré.flac": 26912194, "04 - Scorpio.flac": 37920834, "09 - Cloister.flac": 29057908, "01 - Accretion.flac": 30384898, "05 - Diaphragm.flac": 18469498, "Folder.auCDtect.txt": 4380, "07 - Fractalise.flac": 18853840, "02 - ...
创建时间: 2019-08-09 01:57:45 大小:267.37 MB 文件数量:12 热度:3 最近下载:2021-06-17 16:25:58
    ... .cue": 1092, "Ian Boddy - Elemental.log": 2343, "Ian Boddy - Elemental.flac": 285678786 ...
创建时间: 2019-09-01 17:17:27 大小:337.1 MB 文件数量:8 热度:5 最近下载:2025-04-03 01:25:03
    {"05 Scorch.flac": 37944237, "06 a) Dawn.flac": 8851796, "08 c) Hymn.flac": 14868285, "01 Kinetics.flac": 30585413, "AUDIOCHECKER.txt": 1348, "audiochecker.log": 667, "09 d) Ascent.flac": 20262699, "10 e) Summit.flac": 25982715, "02 The Circle.flac": ...
创建时间: 2019-09-24 09:56:09 大小:299.52 MB 文件数量:14 热度:4 最近下载:2022-11-15 20:40:03
    {"Attractors.jpg": 250947, "05 - Return Vector.mp3": 29043884, "03 - Crossing The Range.mp3": 29838016, "04 - Strange Attractors.mp3": 34223244, "01 - Amongst Dark Clouds.mp3": 19349750, "02 - Parabolic Excursions.mp3": 20968926, "06 - Trip The Light ...
创建时间: 2019-09-28 20:50:50 大小:141.1 MB 文件数量:7 热度:5 最近下载:2025-04-24 16:06:01
    {"back.jpg": 473820, "disc.jpg": 271383, "front.jpg": 1571399, "09 - Coda.flac": 16888872, "05 - Overture.flac": 31016452, "01 - Open Door.flac": 47400596, "03 - Driftwood.flac": 32039402, "Folder.auCDtect.txt": 4052, "04 - Triptastique.flac": 78085317, " ...
创建时间: 2019-10-01 01:14:30 大小:417.38 MB 文件数量:13 热度:4 最近下载:2023-04-22 23:30:03
    {"02 Eurasia.flac": 74610211, "03 Phase 3.flac": 77699332, "AUDIOCHECKER.txt": 917, "audiochecker.log": 453, "04 Piledriver.flac": 85273349, "05 Frozen Canal.flac": 51632935, "01 Tunnel Vision.flac": 97697565, "R-381386-1199096932.jpg": 162233, "R-381386- ...
创建时间: 2019-10-11 15:17:13 大小:369.63 MB 文件数量:11 热度:9 最近下载:2025-08-04 13:16:01
    {"Robert Rich & Ian Boddy - Lithosphere.cue": 1239, "Robert Rich & Ian Boddy - Lithosphere.flac": 256575614}
创建时间: 2019-11-03 23:20:47 大小:244.69 MB 文件数量:2 热度:3 最近下载:2022-11-12 12:57:03
    {"Spirits.jpg": 4454, "01 Pulse.mp3": 5664445, "04 Spirits.mp3": 33185316, "05 Lamalode.mp3": 19096509, "03 The Sentinel.mp3": 17998922, "02 Living In A Ritual.mp3": 7344444, "00 - Ian Boddy - Spirits.nfo": 441}
创建时间: 2019-11-19 06:39:40 大小:79.44 MB 文件数量:7 热度:4 最近下载:2023-12-24 17:36:07
    ... Strategy - Back.jpg": 1238302, "Ian Boddy & Parallel Worlds - Exit Strategy - Front ... .jpg": 969234, "Ian Boddy & Parallel Worlds - Exit Strategy - Booklet ... 1.jpg": 1948199, "Ian Boddy & Parallel Worlds - Exit Strategy - Booklet ...
创建时间: 2020-01-02 22:10:43 大小:298.47 MB 文件数量:16 热度:7 最近下载:2025-03-05 00:34:03
    ... Mullaney_06_Ionosphere.mp3": 15967423, "Ian Boddy, Chris Reuter And Nigel ... Daze.mp3": 20707086, "Ian Boddy, Chris Reuter And Nigel Mullaney_02_Mystertronic ... .mp3": 25951943, "Ian Boddy, Chris Reuter And Nigel Mullaney_05_Triptych ...
创建时间: 2020-01-25 04:48:04 大小:95.3 MB 文件数量:8 热度:3 最近下载:2024-09-04 04:55:01
    ... Intermission.flac": 51933554}, "cover": {"Ian Boddy & Bernhard Wostheinrich - Hemispheres - CD1 ... - Back.jpg": 789735, "Ian Boddy & Bernhard Wostheinrich - Hemispheres - Front ... .jpg": 255057, "Ian Boddy & Bernhard Wostheinrich - Hemispheres - Booklet ...
创建时间: 2020-02-04 07:58:28 大小:450.56 MB 文件数量:28 热度:4 最近下载:2025-03-01 13:26:01
    {"front.jpg": 73711, "04 - Hector.mp3": 4878432, "10 - Months Ago.mp3": 11019305, "07 - Your Own Way.mp3": 11319195, "06 - Hand in Glove.mp3": 15720307, "08 - Loves On Diet.mp3": 11219931, "11 - Kiss and Tell.mp3": 13325401, "05 - I Close My Eyes.mp3": ...
创建时间: 2020-03-14 20:56:27 大小:148.73 MB 文件数量:13 热度:4 最近下载:2025-03-11 19:59:04
    ... ": 14770765}}, "Collaborations": {"2004 - Reuter & Boddy - Pure (DiN17, UK)": {"Scans": {"cd ... 11417429}, "2017 - Markus Reuter & Ian Boddy - Memento (DiN52, EC)": {"Scans": {" ... .m4a": 29100330}, "2009 - Ian Boddy & Bernhard Wöstheinrich - Hemispheres ( ...
创建时间: 2020-03-31 14:15:29 大小:6.3 GB 文件数量:589 热度:3 最近下载:2025-03-03 16:34:03
    ... The Odyssey.mp3": 16777581, "Ian Boddy - Odyssey.nfo": 3017, "02 A ... Time Remembered.mp3": 8619029, "Ian Boddy - Odyssey CD.jpg": 857203, "Ian ... Boddy - Odyssey Back.jpg": 1275328, "Ian Boddy - Odyssey Front.jpg ...
创建时间: 2020-04-16 12:08:34 大小:85.09 MB 文件数量:11 热度:4 最近下载:2024-12-04 06:56:03
    ... .bmp": 1675414, "00 - Ian Boddy - Living Planet - back.bmp": ... 1852206, "00 - Ian Boddy - Living Planet - Front.bmp": ... 2990574, "00 - Ian Boddy - Living Planet - booklet.bmp": ... 3013302, "00 - Ian Boddy - Living Planet - back inlay.bmp ...
创建时间: 2020-05-19 09:36:11 大小:140.81 MB 文件数量:54 热度:3 最近下载:2025-03-02 19:57:03
    ... 1.png": 7790735, "Ian Boddy & Andy Pickford - Symbiont 2 ... Symbiont 4.png": 4722815}, "Ian Boddy & Andy Pickford - Symbiont.cue ... ": 1291, "Ian Boddy & Andy Pickford - Symbiont.log ... ": 2532, "Ian Boddy & Andy Pickford - Symbiont.flac": ...
创建时间: 2020-06-08 17:29:28 大小:401.06 MB 文件数量:7 热度:2 最近下载:2022-04-14 05:46:03
    {"Slide.cue": 1255, "Slide.log": 2735, "results.log": 1986, "Slide - CD.bmp": 1702582, "03 - Slide.flac": 39589447, "Slide - back.bmp": 1852150, "Slide - front.bmp": 1499358, "04 - Tourmaline.flac": 45519266, "08 - Troubadour.flac": 33797342, "07 - ...
创建时间: 2020-09-21 16:45:14 大小:306.89 MB 文件数量:15 热度:4 最近下载:2025-03-10 21:33:02
    ... 1499865}, "Audiochecker.log": 2412, "Ian Boddy - The Uncertainty Principle.ape": 332378340 ... , "Ian Boddy - The Uncertainty Principle.cue": ... 1494, "Ian Boddy - The Uncertainty Principle.log": ...
创建时间: 2020-10-14 22:33:20 大小:325.08 MB 文件数量:9 热度:7 最近下载:2025-09-16 18:59:08
    {"cover.jpg": 279984, "5. Pretty Kitty.mp3": 8514917, "3. Money on Love.mp3": 9137677, "6. Makin' Me Cry.mp3": 9713415, "4. Knock My Boots.mp3": 7980975, "1. Over the Hump (Remix).mp3": 8399979, "2. Love Me Darlin' (Remix).mp3": 7460615}
创建时间: 2020-10-27 06:57:20 大小:49.1 MB 文件数量:7 热度:6 最近下载:2025-03-04 10:58:02